HST 1 20580U 90037B 24339.50256006 .00012481 00000-0 52920-3 0 9996 2 20580 28.4694 281.0825 0002237 103.3937 256.6906 15.21555689703221 ISS (ZARYA) 1 25544U 98067A 24339.55581009 .00017410 00000-0 30986-3 0 9996 2 25544 51.6389 191.3284 0006976 301.1757 99.3335 15.50210297484970 CXO 1 25867U 99040B 24342.39125787 .00000678 00000-0 00000+0 0 9997 2 25867 45.0848 140.4320 8695375 304.8223 0.1385 0.37803356 26378